Temp
11 11 11 11 10 10 10 10 10 9 9 9 9 9 9 8 8 8 8 8 8 8 8 7 7 7 7 7 6 6 6 6 5 5 5 5 5 4 4 4 4 4 4 4 4 4 4 4 4 4 3 3 3 3 3 3 2 2 1 1 1 1 1 0 0 0 0 0 0
11 11 11 10 10 10 10 10 9 9 9 9 9 8 8 8 8 8 8 8 8 7 7 7 7 7 7 6 6 6 5 5 5 5 5 5 4 4 4 4 4 4 4 4 4 3 3 3 3 3 3 3 3 3 3 2 2 1 1 1 1 0 0 0 0 0 0 -0 -0
11 11 10 10 10 10 10 9 9 9 9 9 8 8 8 8 8 8 8 8 7 7 7 7 7 7 6 6 6 5 5 5 5 5 4 4 4 4 4 4 4 4 3 3 3 3 3 3 3 3 3 3 3 2 2 2 1 1 1 0 0 0 0 0 0 -0 -0 -0 -0
10 10 10 10 10 10 9 9 9 9 8 8 8 8 8 8 8 7 7 7 7 7 7 7 7 6 6 6 5 5 5 5 4 4 4 4 4 4 4 4 3 3 3 3 3 3 3 3 3 3 3 2 2 2 2 1 1 1 0 0 0 0 -0 -0 -0 -0 -0 -1 -1
10 10 10 10 10 9 9 9 9 8 8 8 8 8 8 7 7 7 7 7 7 7 7 6 6 6 6 5 5 5 4 4 4 4 4 4 4 4 3 3 3 3 3 3 3 3 3 3 3 3 2 2 2 2 1 1 1 0 0 0 -0 -0 -0 -0 -0 -1 -1 -1 -1
10 10 10 9 9 9 9 8 8 8 8 8 8 7 7 7 7 7 7 7 7 6 6 6 6 6 5 5 5 4 4 4 4 4 4 4 3 3 3 3 3 3 3 3 3 3 3 3 2 2 2 2 2 1 1 1 0 0 -0 -0 -0 -0 -0 -1 -1 -1 -1 -1 -1
10 9 9 9 9 8 8 8 8 8 8 7 7 7 7 7 7 7 6 6 6 6 6 6 6 5 5 5 4 4 4 4 4 3 3 3 3 3 3 3 3 3 3 3 3 3 2 2 2 2 2 2 1 1 1 0 0 -0 -0 -0 -0 -0 -1 -1 -1 -1 -1 -1 -1
9 9 9 9 8 8 8 8 8 7 7 7 7 7 7 6 6 6 6 6 6 6 6 5 5 5 5 4 4 4 4 3 3 3 3 3 3 3 3 3 3 3 3 3 3 2 2 2 2 2 1 1 1 1 0 0 -0 -0 -1 -1 -1 -1 -1 -1 -1 -1 -1 -1 -1
9 9 9 8 8 8 8 8 7 7 7 7 7 6 6 6 6 6 6 6 6 5 5 5 5 5 4 4 4 4 3 3 3 3 3 3 3 3 3 3 3 3 3 2 2 2 2 2 2 1 1 1 1 0 0 -0 -0 -1 -1 -1 -1 -1 -1 -1 -1 -1 -1 -2 -2
9 9 8 8 8 8 7 7 7 7 7 7 6 6 6 6 6 6 6 5 5 5 5 5 5 4 4 4 3 3 3 3 3 3 3 3 3 3 3 3 2 2 2 2 2 2 2 2 1 1 1 1 0 0 -0 -1 -1 -1 -1 -1 -1 -1 -1 -1 -1 -1 -2 -2 -2
8 8 8 8 8 8 7 7 7 7 6 6 6 6 6 6 6 5 5 5 5 5 5 4 4 4 4 3 3 3 3 3 3 3 3 3 3 3 2 2 2 2 2 2 2 2 1 1 1 1 1 0 -0 -0 -1 -1 -1 -1 -1 -1 -1 -1 -1 -1 -1 -2 -2 -2 -3
8 8 8 8 7 7 7 7 7 6 6 6 6 6 6 5 5 5 5 5 5 4 4 4 4 4 3 3 3 3 3 3 3 3 3 2 2 2 2 2 2 2 2 2 2 1 1 1 1 0 0 -0 -0 -1 -1 -1 -1 -2 -2 -2 -2 -2 -2 -2 -2 -2 -2 -3 -3
8 8 8 7 7 7 7 7 6 6 6 6 5 5 5 5 5 5 5 5 4 4 4 4 3 3 3 3 3 3 3 3 2 2 2 2 2 2 2 2 2 2 2 2 1 1 1 1 0 0 -0 -0 -1 -1 -1 -2 -2 -2 -2 -2 -2 -2 -2 -2 -2 -2 -3 -3 -3
8 7 7 7 7 7 7 6 6 6 6 5 5 5 5 5 5 5 4 4 4 4 3 3 3 3 3 3 2 2 2 2 2 2 2 2 2 2 2 2 2 2 2 1 1 1 1 0 0 -0 -1 -1 -1 -1 -2 -2 -2 -2 -2 -2 -2 -2 -2 -2 -2 -3 -3 -3 -3
7 7 7 7 7 7 6 6 6 6 5 5 5 5 5 5 4 4 4 4 4 3 3 3 3 3 2 2 2 2 2 2 2 2 2 2 2 2 2 2 2 1 1 1 1 1 0 0 -0 -1 -1 -1 -2 -2 -2 -2 -2 -2 -2 -2 -2 -2 -2 -3 -3 -3 -4 -4 -4
7 7 7 7 6 6 6 6 6 5 5 5 5 5 4 4 4 4 4 3 3 3 3 3 3 2 2 2 2 2 2 2 2 2 2 2 2 2 2 2 1 1 1 1 1 1 0 -0 -1 -1 -1 -2 -2 -2 -2 -2 -2 -2 -2 -2 -2 -3 -3 -3 -3 -4 -4 -4 -4
7 6 6 6 6 6 6 6 5 5 5 5 4 4 4 4 4 3 3 3 3 3 3 2 2 2 2 2 2 2 2 2 2 2 2 2 2 2 1 1 1 1 1 1 0 0 -0 -1 -1 -1 -2 -2 -2 -2 -2 -2 -2 -2 -2 -2 -3 -3 -3 -4 -4 -4 -4 -4 -5
6 6 6 6 6 6 6 5 5 5 5 4 4 4 4 4 3 3 3 3 3 3 2 2 2 2 2 2 2 2 2 2 2 2 2 2 1 1 1 1 1 1 1 0 -0 -0 -1 -1 -1 -2 -2 -2 -2 -2 -2 -2 -2 -3 -3 -3 -3 -3 -4 -4 -4 -5 -5 -5 -5
6 6 6 6 6 6 5 5 5 4 4 4 4 4 3 3 3 3 3 3 2 2 2 2 2 2 2 2 2 2 2 2 2 2 1 1 1 1 1 1 1 0 0 -0 -1 -1 -1 -1 -2 -2 -2 -2 -2 -2 -3 -3 -3 -3 -3 -3 -4 -4 -4 -5 -5 -5 -5 -5 -5
6 6 6 6 5 5 5 5 4 4 4 4 4 3 3 3 3 3 3 2 2 2 2 2 2 2 2 2 2 2 2 2 1 1 1 1 1 1 1 1 0 0 -0 -1 -1 -1 -1 -2 -2 -2 -2 -2 -3 -3 -3 -3 -3 -3 -4 -4 -4 -5 -5 -5 -5 -5 -5 -6 -6
6 6 5 5 5 5 5 4 4 4 4 3 3 3 3 3 2 2 2 2 2 2 2 2 2 2 2 2 2 2 2 1 1 1 1 1 1 1 1 0 -0 -0 -1 -1 -1 -1 -2 -2 -2 -2 -3 -3 -3 -3 -3 -4 -4 -4 -4 -5 -5 -5 -5 -5 -6 -6 -6 -6 -6
5 5 5 5 5 5 4 4 4 3 3 3 3 3 2 2 2 2 2 2 2 2 2 2 2 2 2 2 2 1 1 1 1 1 1 1 1 1 0 -0 -0 -1 -1 -1 -1 -2 -2 -2 -2 -3 -3 -3 -3 -4 -4 -4 -4 -4 -5 -5 -5 -5 -6 -6 -6 -6 -6 -6 -6
5 5 5 5 4 4 4 4 3 3 3 3 3 2 2 2 2 2 2 2 2 2 2 2 2 2 2 1 1 1 1 1 1 1 1 1 1 0 -0 -0 -1 -1 -1 -2 -2 -2 -2 -2 -3 -3 -3 -3 -4 -4 -4 -4 -5 -5 -5 -5 -5 -6 -6 -6 -6 -6 -6 -6 -6
5 5 4 4 4 4 4 3 3 3 3 2 2 2 2 2 2 2 2 2 2 2 2 2 2 1 1 1 1 1 1 1 1 1 1 0 0 -0 -0 -1 -1 -1 -2 -2 -2 -2 -2 -3 -3 -3 -3 -4 -4 -4 -4 -5 -5 -5 -5 -6 -6 -6 -6 -6 -6 -7 -7 -7 -7
5 4 4 4 4 4 3 3 3 3 2 2 2 2 2 2 2 2 2 2 2 2 2 2 1 1 1 1 1 1 1 1 1 1 0 0 -0 -1 -1 -1 -2 -2 -2 -2 -2 -2 -3 -3 -3 -4 -4 -4 -4 -4 -5 -5 -5 -5 -6 -6 -6 -6 -6 -7 -7 -7 -7 -7 -7
4 4 4 4 4 3 3 3 3 2 2 2 2 2 2 2 2 2 2 2 2 2 1 1 1 1 1 1 1 1 1 1 1 0 -0 -0 -1 -1 -1 -2 -2 -2 -2 -2 -2 -3 -3 -3 -3 -4 -4 -4 -4 -4 -5 -5 -5 -5 -6 -6 -6 -7 -7 -7 -7 -7 -7 -7 -7
4 4 4 3 3 3 3 3 2 2 2 2 2 2 2 2 2 2 2 2 2 1 1 1 1 1 1 1 1 1 1 0 0 -0 -0 -1 -1 -1 -2 -2 -2 -2 -2 -2 -2 -3 -3 -3 -4 -4 -4 -4 -4 -5 -5 -5 -5 -6 -6 -6 -7 -7 -7 -7 -7 -7 -7 -7 -7
4 4 3 3 3 3 3 2 2 2 2 2 2 2 2 2 2 2 2 1 1 1 1 1 1 1 1 1 1 1 0 0 -0 -0 -1 -1 -2 -2 -2 -2 -2 -2 -2 -2 -3 -3 -3 -4 -4 -4 -4 -4 -5 -5 -5 -5 -6 -6 -6 -7 -7 -7 -7 -7 -7 -7 -7 -7 -7
3 3 3 3 3 2 2 2 2 2 2 2 2 2 2 1 1 1 1 1 1 1 1 1 1 1 1 1 1 0 0 -0 -0 -1 -1 -2 -2 -2 -2 -2 -2 -2 -2 -2 -3 -3 -3 -4 -4 -4 -4 -5 -5 -5 -5 -6 -6 -6 -6 -7 -7 -7 -7 -7 -7 -7 -7 -7 -7
3 3 3 2 2 2 2 2 2 2 2 1 1 1 1 1 1 1 1 1 1 1 1 1 1 1 1 1 0 0 -0 -0 -1 -1 -2 -2 -2 -2 -2 -2 -2 -2 -2 -3 -3 -3 -4 -4 -4 -4 -5 -5 -5 -5 -6 -6 -6 -6 -7 -7 -7 -7 -7 -7 -7 -7 -8 -8 -8
3 3 2 2 2 2 2 1 1 1 1 1 1 1 1 1 1 1 1 1 1 1 1 1 1 1 1 0 0 -0 -0 -1 -1 -1 -2 -2 -2 -2 -2 -2 -2 -2 -3 -3 -3 -4 -4 -4 -5 -5 -5 -5 -5 -6 -6 -6 -6 -7 -7 -7 -7 -7 -7 -7 -8 -8 -8 -8 -8
2 2 2 2 2 1 1 1 1 1 1 1 1 1 1 1 1 1 1 1 1 1 1 1 1 0 0 0 -0 -1 -1 -1 -1 -2 -2 -2 -2 -2 -2 -2 -2 -2 -3 -3 -4 -4 -4 -5 -5 -5 -5 -5 -5 -6 -6 -6 -6 -7 -7 -7 -7 -7 -7 -8 -8 -8 -8 -8 -8
2 2 2 1 1 1 1 1 1 1 1 1 1 1 1 1 1 1 1 1 1 1 1 1 0 0 0 -0 -1 -1 -1 -1 -2 -2 -2 -2 -2 -2 -2 -2 -2 -3 -3 -4 -4 -4 -5 -5 -5 -5 -5 -5 -6 -6 -6 -6 -7 -7 -7 -7 -7 -7 -8 -8 -8 -8 -8 -8 -8
2 2 1 1 1 1 1 1 1 1 1 1 1 1 1 1 1 1 1 1 1 1 1 0 0 0 -0 -1 -1 -1 -2 -2 -2 -2 -2 -2 -2 -2 -2 -3 -3 -3 -3 -4 -4 -5 -5 -5 -5 -5 -5 -6 -6 -6 -6 -6 -7 -7 -7 -7 -7 -7 -8 -8 -8 -8 -8 -8 -8
1 1 1 1 1 1 1 1 1 1 1 1 1 1 1 1 1 1 1 1 1 1 0 0 0 -0 -1 -1 -1 -2 -2 -2 -2 -2 -2 -2 -2 -2 -3 -3 -3 -3 -4 -4 -5 -5 -5 -5 -5 -5 -6 -6 -6 -6 -6 -6 -7 -7 -7 -7 -7 -8 -8 -8 -8 -8 -8 -8 -8
1 1 1 1 1 1 1 1 1 1 1 1 1 1 1 1 1 1 1 1 0 0 0 0 -0 -1 -1 -1 -2 -2 -2 -2 -2 -2 -2 -2 -2 -3 -3 -3 -3 -4 -4 -5 -5 -5 -5 -5 -6 -6 -6 -6 -6 -6 -6 -6 -7 -7 -7 -7 -8 -8 -8 -8 -8 -8 -8 -8 -8
1 1 1 1 1 1 1 1 1 1 1 1 1 1 1 1 1 1 1 0 0 0 0 -0 -0 -1 -1 -1 -2 -2 -2 -2 -2 -2 -2 -2 -3 -3 -3 -4 -4 -4 -4 -5 -5 -5 -5 -6 -6 -6 -6 -6 -6 -6 -6 -7 -7 -7 -7 -7 -8 -8 -8 -8 -8 -8 -8 -8 -8
1 1 1 1 1 1 1 1 1 1 1 1 1 1 1 1 1 1 0 0 0 -0 -0 -1 -1 -1 -1 -2 -2 -2 -2 -2 -2 -2 -2 -3 -3 -4 -4 -4 -4 -5 -5 -5 -5 -5 -6 -6 -6 -6 -6 -6 -6 -6 -6 -7 -7 -7 -7 -8 -8 -8 -8 -8 -8 -8 -8 -8 -8
1 1 1 1 1 1 1 1 1 1 1 1 1 1 1 1 1 0 0 0 -0 -0 -1 -1 -1 -1 -2 -2 -2 -2 -2 -2 -2 -2 -3 -3 -4 -4 -4 -5 -5 -5 -5 -5 -5 -6 -6 -6 -6 -6 -6 -6 -6 -6 -6 -7 -7 -7 -8 -8 -8 -8 -8 -8 -8 -8 -8 -8 -7
1 1 1 1 1 1 1 1 1 1 1 1 1 1 1 1 0 0 0 -0 -1 -1 -1 -1 -2 -2 -2 -2 -2 -2 -2 -2 -2 -2 -3 -3 -4 -4 -5 -5 -5 -5 -5 -5 -5 -6 -6 -6 -6 -6 -6 -6 -6 -6 -7 -7 -7 -7 -8 -8 -8 -8 -8 -8 -8 -8 -8 -8 -7
1 1 1 1 1 1 1 1 1 1 1 1 1 1 0 0 0 0 -0 -0 -1 -1 -1 -2 -2 -2 -2 -2 -2 -2 -2 -2 -2 -3 -3 -4 -4 -5 -5 -5 -5 -5 -5 -6 -6 -6 -6 -6 -6 -6 -6 -6 -6 -7 -7 -7 -7 -8 -8 -8 -8 -8 -8 -8 -8 -8 -8 -7 -7
Height
1487 1487 1487 1487 1487 1487 1487 1487 1487 1487 1486 1486 1486 1486 1486 1485 1485 1485 1484 1484 1483 1483 1482 1482 1481 1481 1480 1479 1479 1478 1477 1477 1476 1475 1475 1474 1473 1472 1472 1471 1471 1470 1469 1468 1468 1467 1466 1465 1464 1463 1462 1461 1461 1459 1458 1457 1456 1455 1454 1453 1451 1450 1449 1447 1446 1445 1444 1442 1441
1486 1486 1487 1487 1487 1487 1486 1486 1486 1486 1486 1486 1486 1486 1485 1485 1485 1484 1484 1483 1483 1482 1482 1481 1481 1480 1480 1479 1478 1477 1477 1476 1476 1475 1474 1473 1473 1472 1471 1471 1470 1469 1468 1468 1467 1466 1465 1464 1463 1462 1461 1460 1459 1458 1457 1456 1455 1453 1452 1451 1450 1449 1447 1446 1444 1443 1442 1441 1439
1486 1486 1486 1486 1486 1486 1486 1486 1486 1486 1486 1486 1486 1485 1485 1485 1484 1484 1483 1483 1482 1482 1481 1481 1480 1480 1479 1478 1477 1477 1476 1476 1475 1474 1473 1473 1472 1471 1471 1470 1469 1468 1468 1467 1466 1465 1464 1463 1462 1461 1460 1459 1457 1456 1455 1454 1453 1452 1451 1450 1448 1447 1446 1444 1443 1441 1440 1439 1438
1486 1486 1486 1486 1486 1486 1486 1486 1486 1485 1485 1485 1485 1485 1485 1484 1484 1483 1483 1482 1481 1481 1481 1480 1479 1479 1478 1477 1477 1476 1475 1475 1474 1473 1473 1472 1471 1471 1470 1469 1468 1468 1467 1466 1465 1464 1463 1462 1461 1460 1459 1457 1456 1455 1454 1453 1451 1451 1449 1448 1447 1445 1444 1442 1441 1440 1438 1437 1436
1485 1485 1485 1485 1485 1485 1485 1485 1485 1485 1485 1485 1485 1484 1484 1484 1483 1482 1482 1481 1481 1480 1480 1479 1478 1478 1477 1477 1476 1475 1475 1474 1473 1473 1472 1471 1471 1470 1469 1468 1468 1467 1466 1465 1464 1463 1462 1461 1460 1459 1457 1456 1455 1454 1452 1451 1450 1449 1447 1446 1445 1444 1442 1441 1439 1438 1437 1435 1434
1484 1484 1484 1485 1485 1485 1485 1485 1485 1484 1484 1484 1484 1484 1483 1483 1482 1482 1481 1481 1480 1480 1479 1478 1478 1477 1476 1476 1475 1475 1474 1473 1472 1472 1471 1470 1470 1469 1468 1468 1467 1466 1465 1464 1463 1462 1461 1460 1458 1457 1456 1455 1453 1452 1451 1450 1448 1447 1446 1444 1443 1442 1441 1439 1438 1436 1435 1434 1432
1484 1484 1484 1484 1484 1484 1484 1484 1484 1484 1484 1484 1483 1483 1483 1482 1481 1481 1480 1480 1479 1479 1478 1478 1477 1476 1476 1475 1474 1474 1473 1472 1471 1471 1470 1470 1469 1468 1467 1466 1466 1465 1464 1463 1462 1461 1460 1458 1457 1456 1454 1453 1452 1451 1449 1448 1447 1445 1444 1442 1441 1440 1439 1438 1436 1435 1433 1432 1430
1483 1483 1483 1484 1484 1484 1484 1484 1484 1484 1483 1483 1483 1483 1482 1481 1481 1480 1480 1479 1478 1478 1477 1477 1476 1476 1475 1474 1473 1473 1472 1471 1471 1470 1469 1469 1468 1467 1466 1466 1465 1464 1463 1462 1461 1459 1458 1457 1456 1454 1453 1451 1450 1449 1447 1446 1445 1444 1442 1441 1439 1438 1437 1436 1435 1433 1432 1430 1428
1483 1483 1483 1483 1483 1483 1483 1483 1483 1483 1483 1483 1482 1482 1481 1481 1480 1480 1479 1478 1478 1477 1477 1476 1476 1475 1474 1473 1472 1472 1471 1470 1470 1469 1468 1468 1467 1466 1465 1464 1463 1462 1461 1461 1460 1458 1457 1456 1454 1453 1451 1450 1448 1447 1446 1445 1443 1442 1441 1439 1438 1436 1435 1434 1433 1431 1430 1428 1426
1482 1482 1482 1482 1482 1483 1483 1483 1482 1482 1482 1482 1481 1481 1481 1480 1480 1479 1479 1478 1477 1476 1476 1475 1475 1474 1473 1472 1471 1471 1470 1469 1469 1468 1467 1466 1466 1465 1464 1463 1462 1461 1460 1459 1458 1457 1456 1454 1453 1451 1450 1448 1447 1446 1444 1443 1442 1441 1439 1438 1436 1435 1433 1432 1431 1430 1428 1426 1425
1481 1481 1482 1482 1482 1482 1482 1482 1482 1482 1481 1481 1481 1480 1480 1480 1479 1478 1478 1477 1476 1476 1475 1474 1474 1473 1472 1471 1471 1470 1469 1468 1468 1467 1466 1466 1465 1464 1463 1462 1461 1460 1459 1458 1457 1456 1454 1452 1451 1449 1448 1447 1446 1444 1443 1441 1440 1439 1437 1436 1435 1433 1431 1430 1429 1428 1426 1424 1423
1481 1481 1481 1481 1481 1481 1481 1481 1481 1481 1481 1481 1480 1480 1479 1479 1478 1478 1477 1476 1476 1475 1474 1473 1473 1472 1471 1471 1470 1469 1468 1467 1467 1466 1465 1465 1464 1463 1462 1461 1460 1459 1458 1457 1456 1454 1452 1451 1449 1448 1446 1445 1444 1442 1441 1440 1438 1437 1436 1434 1433 1431 1430 1428 1426 1426 1424 1423 1421
1480 1480 1480 1480 1481 1481 1481 1481 1480 1480 1480 1480 1479 1479 1478 1478 1477 1477 1476 1475 1475 1474 1473 1472 1472 1471 1470 1469 1469 1468 1467 1466 1466 1465 1464 1464 1463 1462 1461 1460 1459 1458 1456 1455 1454 1452 1451 1449 1448 1446 1445 1443 1442 1441 1440 1438 1437 1436 1434 1432 1431 1429 1428 1426 1425 1423 1422 1421 1419
1479 1480 1480 1480 1480 1480 1480 1480 1480 1479 1479 1479 1479 1478 1477 1477 1476 1476 1475 1474 1474 1473 1472 1471 1471 1470 1469 1468 1468 1467 1466 1466 1465 1464 1463 1462 1462 1461 1460 1459 1457 1456 1455 1454 1452 1451 1449 1448 1446 1445 1443 1441 1440 1439 1438 1437 1436 1434 1432 1431 1429 1427 1426 1424 1423 1421 1420 1418 1416
1479 1479 1479 1479 1479 1479 1479 1479 1479 1478 1478 1478 1478 1477 1476 1476 1475 1475 1474 1473 1473 1472 1471 1471 1470 1469 1468 1468 1467 1466 1466 1465 1464 1463 1462 1461 1460 1459 1458 1457 1456 1455 1453 1452 1451 1449 1448 1446 1445 1443 1441 1440 1439 1438 1436 1436 1434 1433 1431 1429 1427 1426 1424 1422 1421 1419 1418 1416 1415
1478 1478 1478 1478 1478 1478 1478 1478 1478 1477 1477 1477 1477 1476 1476 1475 1474 1474 1473 1472 1472 1471 1470 1470 1469 1468 1467 1467 1466 1465 1465 1464 1463 1462 1461 1460 1459 1458 1457 1456 1454 1453 1451 1450 1449 1447 1446 1445 1443 1442 1440 1439 1437 1436 1435 1434 1432 1431 1429 1427 1426 1424 1422 1421 1419 1417 1416 1415 1413
1477 1477 1477 1477 1477 1477 1477 1477 1477 1477 1476 1476 1476 1475 1475 1474 1473 1473 1472 1471 1471 1470 1469 1469 1468 1467 1466 1466 1465 1464 1463 1462 1461 1461 1460 1459 1457 1456 1455 1454 1453 1451 1450 1449 1447 1446 1444 1443 1441 1440 1439 1437 1436 1435 1433 1432 1431 1429 1427 1425 1424 1422 1420 1419 1417 1416 1414 1413 1411
1476 1476 1476 1476 1476 1476 1476 1476 1476 1476 1476 1475 1475 1474 1474 1473 1472 1472 1471 1470 1470 1469 1468 1467 1467 1466 1466 1465 1464 1463 1462 1461 1460 1459 1458 1457 1456 1455 1454 1453 1451 1450 1448 1447 1446 1444 1442 1441 1440 1439 1437 1436 1435 1433 1432 1430 1428 1426 1425 1423 1421 1420 1418 1417 1416 1414 1412 1411 1409
1476 1476 1476 1476 1476 1476 1476 1475 1475 1475 1475 1474 1474 1473 1472 1472 1471 1471 1470 1469 1469 1468 1467 1466 1466 1465 1465 1464 1463 1462 1461 1460 1459 1458 1457 1456 1455 1454 1452 1451 1450 1448 1447 1446 1444 1442 1441 1440 1438 1437 1436 1434 1433 1431 1430 1428 1426 1424 1422 1421 1419 1418 1416 1415 1413 1412 1411 1409 1407
1475 1475 1475 1475 1475 1475 1475 1474 1474 1474 1474 1473 1473 1472 1471 1471 1470 1470 1469 1468 1468 1467 1466 1466 1465 1464 1463 1463 1462 1461 1460 1459 1458 1457 1456 1455 1454 1452 1451 1450 1448 1447 1445 1444 1442 1441 1439 1438 1436 1435 1434 1432 1431 1429 1427 1426 1424 1422 1421 1419 1417 1416 1414 1413 1411 1410 1408 1407 1405
1474 1474 1474 1474 1474 1474 1474 1473 1473 1473 1473 1472 1472 1471 1471 1470 1469 1469 1468 1467 1466 1466 1465 1465 1464 1463 1462 1461 1461 1460 1459 1458 1457 1456 1455 1454 1452 1451 1450 1448 1446 1445 1444 1442 1441 1439 1438 1436 1435 1433 1432 1430 1429 1427 1425 1423 1422 1420 1418 1417 1415 1414 1412 1411 1409 1408 1406 1405 1403
1473 1473 1473 1473 1473 1473 1473 1473 1472 1472 1472 1471 1471 1470 1470 1469 1468 1468 1467 1466 1466 1465 1464 1463 1463 1462 1461 1461 1460 1459 1458 1457 1456 1455 1454 1452 1451 1450 1448 1447 1445 1443 1442 1441 1439 1438 1436 1435 1433 1432 1430 1428 1427 1425 1424 1422 1420 1418 1416 1415 1413 1411 1410 1409 1407 1406 1404 1403 1402
1472 1472 1472 1472 1472 1472 1472 1472 1471 1471 1471 1470 1470 1469 1469 1468 1467 1467 1466 1465 1465 1464 1463 1462 1462 1461 1460 1460 1459 1458 1456 1456 1455 1453 1452 1451 1449 1448 1446 1445 1444 1442 1441 1439 1438 1436 1435 1433 1431 1430 1429 1427 1425 1424 1422 1421 1419 1416 1415 1413 1411 1409 1408 1406 1405 1404 1402 1401 1400
1471 1471 1471 1471 1471 1471 1471 1471 1471 1470 1470 1469 1469 1468 1467 1467 1466 1466 1465 1464 1464 1463 1462 1461 1461 1460 1459 1459 1458 1457 1456 1454 1453 1451 1450 1449 1448 1446 1445 1443 1442 1441 1439 1438 1436 1435 1433 1432 1430 1429 1427 1426 1424 1422 1421 1419 1417 1415 1413 1411 1409 1407 1406 1404 1403 1402 1401 1399 1398
1471 1471 1471 1471 1471 1470 1470 1470 1470 1469 1469 1468 1468 1467 1466 1466 1465 1465 1464 1463 1463 1462 1461 1461 1460 1459 1458 1457 1456 1456 1454 1453 1451 1450 1448 1447 1446 1445 1443 1442 1440 1439 1438 1436 1435 1434 1432 1431 1430 1428 1426 1425 1423 1421 1419 1417 1416 1414 1412 1410 1408 1406 1404 1402 1401 1400 1399 1398 1397
1470 1470 1470 1470 1470 1469 1469 1469 1468 1468 1468 1467 1466 1466 1466 1465 1464 1464 1463 1462 1462 1461 1461 1460 1459 1458 1457 1456 1455 1454 1453 1451 1450 1448 1447 1445 1444 1442 1441 1440 1439 1437 1436 1435 1434 1432 1431 1430 1429 1427 1426 1423 1421 1420 1417 1416 1414 1412 1410 1408 1406 1405 1403 1401 1399 1398 1397 1397 1396
1469 1469 1469 1469 1469 1468 1468 1468 1467 1467 1466 1466 1466 1465 1464 1464 1463 1463 1462 1461 1461 1460 1460 1459 1458 1457 1456 1455 1454 1452 1451 1450 1448 1447 1445 1444 1442 1441 1440 1438 1437 1436 1435 1433 1432 1431 1429 1428 1427 1426 1424 1422 1421 1418 1416 1414 1412 1410 1409 1407 1405 1403 1402 1400 1398 1397 1396 1395 1394
1468 1468 1468 1468 1468 1467 1467 1467 1466 1466 1466 1465 1464 1464 1463 1463 1462 1462 1461 1461 1460 1459 1459 1458 1457 1456 1455 1453 1452 1451 1450 1448 1446 1445 1444 1442 1441 1440 1438 1437 1436 1434 1433 1432 1431 1429 1428 1426 1425 1424 1423 1421 1419 1417 1415 1413 1411 1409 1407 1406 1404 1402 1401 1399 1398 1396 1395 1394 1392
1467 1467 1467 1467 1466 1466 1466 1466 1465 1465 1464 1464 1463 1463 1462 1462 1461 1461 1460 1460 1459 1458 1457 1456 1456 1454 1453 1452 1451 1449 1448 1446 1445 1443 1442 1441 1439 1438 1437 1435 1434 1433 1431 1430 1429 1427 1426 1425 1423 1422 1421 1420 1418 1416 1413 1411 1409 1407 1406 1404 1402 1401 1400 1398 1397 1396 1394 1392 1391
1466 1466 1466 1466 1466 1466 1465 1465 1464 1464 1463 1463 1462 1462 1461 1461 1461 1460 1459 1459 1458 1457 1456 1455 1454 1453 1452 1450 1449 1447 1446 1445 1443 1442 1440 1439 1437 1436 1435 1434 1432 1431 1430 1428 1427 1426 1424 1423 1422 1421 1419 1418 1416 1414 1412 1410 1408 1406 1404 1403 1401 1400 1399 1398 1396 1395 1393 1391 1389
1466 1466 1465 1465 1465 1465 1464 1464 1463 1463 1462 1462 1461 1461 1461 1460 1460 1459 1458 1458 1457 1456 1455 1454 1453 1451 1450 1449 1447 1446 1444 1443 1441 1440 1439 1437 1436 1434 1433 1432 1431 1429 1428 1426 1425 1424 1422 1421 1420 1419 1417 1416 1414 1412 1410 1408 1406 1405 1403 1401 1400 1399 1398 1396 1395 1393 1392 1390 1388
1465 1465 1465 1464 1464 1464 1463 1463 1462 1462 1461 1461 1461 1460 1460 1459 1459 1458 1457 1456 1456 1455 1453 1452 1451 1450 1448 1447 1445 1444 1442 1441 1440 1438 1437 1436 1434 1433 1431 1430 1429 1427 1426 1425 1423 1422 1421 1420 1418 1417 1415 1414 1412 1410 1408 1406 1405 1403 1402 1400 1399 1398 1396 1395 1394 1392 1390 1389 1387
1464 1464 1464 1464 1463 1463 1462 1462 1461 1461 1461 1460 1460 1460 1459 1458 1458 1457 1456 1456 1454 1453 1452 1451 1449 1448 1446 1445 1443 1442 1441 1439 1438 1437 1436 1434 1433 1431 1430 1428 1427 1426 1424 1423 1421 1420 1419 1418 1416 1415 1413 1412 1410 1408 1406 1405 1403 1402 1400 1399 1398 1396 1395 1394 1392 1391 1389 1387 1386
1463 1463 1463 1463 1462 1462 1461 1461 1461 1460 1460 1460 1459 1459 1458 1457 1457 1456 1455 1454 1453 1452 1451 1449 1448 1446 1445 1443 1442 1440 1439 1437 1436 1435 1434 1432 1431 1429 1428 1426 1425 1424 1423 1421 1420 1419 1417 1416 1415 1413 1411 1410 1408 1406 1405 1403 1402 1400 1399 1397 1396 1395 1393 1392 1391 1389 1388 1386 1385
1462 1462 1462 1461 1461 1461 1460 1460 1460 1459 1459 1459 1458 1458 1457 1456 1456 1455 1454 1453 1451 1450 1449 1448 1446 1445 1443 1441 1440 1439 1437 1436 1435 1433 1432 1431 1429 1427 1426 1425 1423 1422 1421 1420 1418 1417 1416 1414 1413 1411 1410 1408 1407 1405 1403 1402 1400 1399 1397 1396 1394 1393 1392 1390 1389 1388 1386 1385 1383
1461 1461 1461 1461 1460 1460 1459 1459 1459 1459 1458 1458 1457 1457 1456 1456 1455 1454 1452 1451 1450 1448 1447 1446 1444 1443 1441 1440 1439 1437 1436 1435 1433 1432 1431 1429 1428 1426 1424 1422 1421 1420 1419 1418 1416 1415 1414 1412 1411 1410 1409 1407 1405 1404 1402 1401 1399 1397 1396 1394 1393 1391 1390 1389 1387 1386 1385 1383 1382
1461 1460 1460 1460 1459 1459 1459 1458 1458 1458 1457 1457 1456 1456 1455 1454 1453 1452 1451 1450 1448 1446 1445 1444 1442 1441 1440 1438 1437 1436 1435 1434 1432 1430 1429 1427 1426 1424 1422 1420 1419 1418 1417 1416 1415 1414 1412 1411 1410 1409 1407 1406 1404 1402 1401 1399 1397 1396 1394 1393 1391 1390 1389 1387 1386 1384 1383 1382 1381
1459 1459 1459 1459 1458 1458 1458 1458 1457 1457 1456 1456 1456 1455 1454 1453 1452 1451 1450 1448 1446 1445 1443 1442 1441 1439 1438 1437 1436 1434 1433 1432 1431 1429 1427 1426 1424 1423 1421 1419 1417 1416 1416 1414 1413 1412 1411 1410 1409 1407 1406 1405 1403 1401 1399 1398 1396 1394 1393 1391 1390 1388 1387 1386 1384 1383 1381 1380 1378
1458 1458 1458 1458 1458 1457 1457 1457 1456 1456 1456 1455 1454 1453 1453 1451 1451 1449 1448 1447 1445 1443 1442 1440 1439 1438 1437 1436 1434 1433 1431 1431 1430 1428 1426 1424 1423 1421 1420 1418 1416 1415 1414 1413 1412 1411 1410 1408 1407 1406 1405 1404 1402 1400 1398 1396 1395 1393 1391 1390 1388 1386 1385 1384 1383 1381 1379 1378 1376
1457 1457 1457 1457 1457 1457 1456 1456 1456 1455 1455 1454 1453 1452 1451 1450 1449 1448 1446 1445 1444 1442 1441 1439 1438 1437 1436 1434 1433 1431 1430 1429 1427 1426 1425 1423 1421 1420 1418 1417 1415 1413 1412 1411 1410 1409 1408 1407 1406 1405 1404 1402 1401 1399 1397 1395 1393 1391 1390 1389 1387 1385 1383 1382 1381 1380 1377 1375 1374
1457 1456 1456 1456 1456 1456 1456 1455 1455 1454 1454 1453 1452 1451 1450 1449 1448 1446 1445 1444 1442 1441 1439 1438 1436 1436 1434 1433 1431 1430 1428 1426 1425 1424 1423 1421 1420 1418 1417 1416 1414 1412 1411 1410 1409 1408 1406 1406 1405 1404 1403 1401 1400 1398 1396 1394 1392 1390 1389 1387 1386 1384 1382 1381 1379 1377 1376 1374 1373
Wind_Speed
4 5 5 5 5 6 7 8 9 10 10 11 12 13 14 15 15 16 17 18 19 20 20 21 21 21 21 21 21 21 20 20 19 19 19 19 19 19 19 20 20 20 21 21 22 23 23 24 25 26 27 28 29 29 29 29 28 28 28 27 28 28 29 30 30 30 30 29 28
3 3 3 4 5 6 7 7 8 9 10 11 12 13 13 14 15 16 17 18 19 19 20 20 21 21 21 21 20 20 20 20 20 19 19 19 19 19 19 20 20 21 21 22 23 23 24 25 26 27 28 29 30 30 30 30 29 28 28 28 28 29 30 30 30 30 30 30 29
2 2 3 3 4 5 6 7 8 9 9 10 11 12 13 14 15 16 17 18 18 19 19 20 20 20 20 20 20 20 20 20 20 20 19 19 19 19 20 20 20 21 22 22 23 24 25 26 27 29 30 30 31 31 31 30 29 28 28 28 29 30 30 30 31 30 30 30 30
1 2 2 4 5 5 6 7 8 8 9 10 11 12 13 14 15 16 17 17 18 18 18 19 19 20 20 20 20 20 20 20 20 20 20 19 19 20 20 20 21 21 22 23 24 25 26 27 29 29 30 31 31 32 31 30 29 29 28 29 29 30 30 31 31 31 31 31 31
1 2 3 4 5 5 6 7 7 8 9 10 12 13 14 15 15 16 16 17 17 17 18 18 19 19 20 20 20 20 20 20 20 20 20 20 20 20 20 21 21 22 23 24 25 26 27 29 30 30 31 32 32 31 31 30 29 29 29 30 30 30 31 31 31 32 32 32 32
1 2 3 4 4 5 6 6 7 8 9 11 12 13 14 15 15 15 15 16 16 17 17 18 18 19 19 20 20 20 20 20 20 20 20 20 20 20 20 21 22 23 24 25 26 27 29 30 31 31 32 32 32 32 31 30 30 30 30 30 31 31 31 32 32 32 33 33 33
1 2 2 3 4 5 5 6 7 8 9 11 12 13 13 14 14 14 15 15 16 16 17 17 18 19 19 20 20 20 20 20 20 20 20 20 20 20 21 22 23 24 25 26 28 29 30 31 31 32 33 33 33 32 31 31 30 30 31 31 31 31 32 32 33 33 34 34 34
1 2 2 3 4 4 5 6 7 8 9 10 11 12 12 13 13 14 15 15 16 16 17 17 18 19 20 20 21 21 20 20 20 20 20 20 20 21 22 23 24 25 26 27 29 30 31 31 32 33 33 33 33 32 32 31 31 31 31 32 32 33 33 33 34 34 34 35 35
2 2 3 3 4 5 6 7 8 8 9 10 11 11 12 13 13 14 15 15 16 17 17 17 18 19 20 21 21 21 20 20 20 19 20 20 21 21 23 24 25 26 27 29 29 30 31 32 33 33 33 33 33 32 32 31 31 31 31 32 33 34 34 35 35 35 35 35 34
2 2 3 3 4 5 6 7 8 9 9 10 11 12 12 13 14 14 15 16 17 17 17 18 19 20 21 21 21 21 20 20 20 20 20 21 21 22 24 25 26 27 29 29 30 31 32 33 33 34 34 33 33 32 32 31 31 31 32 33 34 35 36 36 36 36 35 35 34
3 3 3 4 5 6 7 8 8 9 9 10 11 12 13 13 14 15 16 16 17 17 18 19 20 20 21 21 21 20 20 20 20 20 20 21 22 23 24 26 27 28 29 30 31 32 33 33 34 34 34 33 32 32 32 31 31 32 33 34 35 36 37 37 37 36 35 35 34
3 3 3 4 5 7 8 8 9 9 9 10 11 12 13 14 14 15 16 16 17 17 18 19 20 21 21 21 20 20 20 20 20 20 21 22 23 24 25 27 28 29 30 31 32 32 33 34 34 34 34 33 32 32 31 31 32 33 34 35 36 37 37 38 37 36 35 35 35
3 3 4 5 6 7 8 9 9 9 10 10 11 12 13 14 14 15 15 16 17 18 19 20 20 21 21 20 20 20 20 20 20 21 22 23 24 25 26 28 29 30 31 31 32 33 34 34 34 34 33 33 32 31 31 31 32 33 35 36 37 38 38 38 38 37 36 35 35
4 4 4 5 6 8 9 10 10 10 10 11 11 12 13 14 14 15 15 16 17 18 19 20 20 20 20 20 20 20 20 20 21 22 23 24 25 26 28 29 30 31 32 32 33 34 34 34 34 33 33 32 32 31 31 32 33 34 35 37 38 38 39 38 38 37 36 36 35
4 4 5 6 7 8 10 10 11 11 11 11 11 12 13 14 14 15 15 16 17 18 19 20 20 20 19 19 19 20 20 21 22 23 24 25 26 27 29 30 31 32 32 33 34 34 34 34 33 33 32 32 32 31 32 32 34 35 36 37 38 39 39 38 38 37 36 35 35
4 5 5 6 8 9 10 11 11 11 11 11 11 12 13 14 14 15 16 16 17 18 19 19 19 19 19 19 19 20 21 22 23 24 25 26 28 29 30 31 32 33 33 34 35 35 34 34 33 32 32 31 31 32 33 34 35 36 37 38 39 39 39 38 37 36 36 35 35
5 5 6 7 8 10 11 11 11 11 11 11 11 12 13 14 15 15 16 17 18 19 19 19 19 19 19 19 20 21 22 23 24 25 26 28 29 30 31 32 33 33 34 35 35 35 34 34 33 32 31 31 32 32 34 35 36 37 39 39 39 39 38 37 36 36 35 35 35
5 6 7 7 9 10 11 12 11 11 11 11 12 13 13 14 15 16 17 18 18 19 19 19 19 19 19 20 20 21 23 24 25 26 27 29 30 31 32 33 33 34 34 35 35 35 34 33 33 32 32 32 32 33 35 36 37 39 39 40 40 39 38 37 36 36 35 35 35
5 6 7 8 9 11 12 12 11 11 11 11 12 13 14 15 16 17 18 18 19 19 19 19 19 19 20 20 21 22 24 25 26 27 29 30 31 32 33 33 34 34 35 35 35 34 34 33 33 33 32 33 34 35 36 37 38 39 40 40 40 39 38 38 37 36 35 35 35
6 6 7 8 10 11 12 11 11 10 11 12 13 13 14 15 16 17 18 18 18 19 19 19 19 20 20 21 22 23 25 26 27 29 30 31 32 33 33 34 34 35 35 34 34 34 34 34 33 33 33 34 34 36 37 38 38 39 39 40 39 39 38 38 37 37 36 35 34
6 7 8 9 11 11 11 11 10 10 11 12 13 14 15 16 17 18 18 18 18 19 19 19 20 20 21 22 24 25 26 27 28 30 31 32 33 33 34 34 34 35 35 34 34 34 34 34 34 33 34 34 35 36 37 37 38 39 39 39 39 39 39 38 38 37 36 34 33
6 7 8 10 11 11 11 10 10 11 11 12 14 15 16 17 18 18 18 18 18 19 19 20 20 21 22 24 25 26 27 28 29 31 32 33 33 34 34 34 34 34 34 34 34 34 34 34 34 33 34 34 35 35 36 36 37 38 39 40 40 40 40 39 38 36 35 33 31
7 8 9 10 11 11 10 10 10 11 12 13 14 16 17 17 18 18 18 18 19 19 20 20 21 22 23 25 26 27 28 30 31 32 33 33 34 34 34 34 34 34 34 34 34 34 34 34 34 33 33 33 34 34 35 36 37 37 39 39 40 40 40 39 37 35 33 31 30
8 9 10 11 11 11 10 11 11 12 13 14 15 16 17 17 18 18 18 18 19 19 20 21 22 23 24 26 27 28 30 31 32 33 34 34 34 34 34 34 34 34 34 34 34 34 34 33 33 33 32 32 33 33 34 35 36 37 38 39 39 40 39 38 36 33 32 30 29
9 10 11 11 11 11 11 11 12 13 14 15 16 16 17 17 17 18 18 19 19 20 21 22 23 24 25 27 28 29 30 32 33 34 34 35 35 34 34 34 34 34 34 34 34 34 33 32 31 31 31 31 32 33 34 34 35 37 38 38 38 39 38 37 35 32 30 29 28
10 11 11 11 11 12 12 12 13 14 14 15 16 16 17 17 17 18 18 19 20 21 22 23 24 25 27 28 29 30 31 33 33 34 34 35 35 35 34 34 34 34 34 34 34 34 33 32 30 30 30 30 31 32 33 34 35 36 37 37 37 37 36 35 33 32 30 28 28
11 11 11 11 12 12 12 13 13 14 15 15 16 16 16 17 18 18 19 20 21 22 23 24 25 26 28 29 30 31 32 33 34 34 34 34 34 34 34 34 34 34 34 34 34 34 33 32 30 29 29 29 30 31 32 34 35 36 36 36 36 35 33 32 32 31 30 29 28
10 11 11 11 11 12 12 13 14 14 15 15 16 16 17 17 18 19 20 21 22 23 24 25 26 27 29 30 31 32 33 34 34 34 34 34 34 34 34 34 34 34 34 34 34 34 33 31 30 29 28 28 29 30 32 34 35 35 35 35 34 33 31 30 29 29 30 30 30
10 10 10 10 11 12 13 13 14 14 15 15 15 16 17 17 18 19 20 21 22 24 25 26 27 29 30 31 32 33 34 34 34 34 34 34 33 34 34 34 34 35 35 34 34 33 32 31 30 29 28 27 28 30 31 33 34 34 34 33 32 31 29 28 28 29 31 31 32
10 9 10 10 11 12 13 13 14 14 14 15 15 16 17 18 19 20 21 22 23 25 26 27 29 30 31 32 33 34 34 35 34 34 34 34 33 34 34 34 35 35 35 34 34 33 31 30 29 28 28 28 28 30 31 32 33 33 33 32 30 29 28 28 29 30 31 31 31
9 9 10 10 11 12 13 13 13 14 14 15 16 17 17 18 19 20 22 23 24 26 27 28 29 31 32 33 34 34 34 34 34 34 34 33 34 34 34 35 35 35 35 34 33 32 31 30 29 28 28 28 29 29 30 31 31 32 31 30 28 28 28 29 29 29 30 30 31
9 9 10 11 11 12 12 12 13 13 14 15 16 17 18 19 20 21 22 24 25 27 28 29 30 32 33 34 34 34 34 34 34 34 34 34 34 34 35 35 35 35 35 34 33 31 30 29 29 29 29 28 28 29 29 30 30 30 29 29 28 28 29 29 29 29 30 30 30
9 10 10 11 11 12 12 12 13 14 15 15 16 17 18 20 21 22 23 25 26 27 29 30 31 32 33 34 34 34 34 34 34 34 34 34 34 35 35 35 35 35 34 33 32 31 30 29 29 29 28 28 28 28 29 29 29 29 29 29 29 29 29 29 29 30 30 30 29
10 10 11 11 11 11 12 12 13 14 15 16 17 18 19 20 22 23 24 26 27 28 30 31 32 33 33 33 33 33 34 34 34 34 34 35 35 35 35 35 35 34 34 33 32 31 30 29 29 29 28 28 28 28 29 29 29 29 29 29 29 29 29 29 30 30 30 29 29
10 10 10 11 11 11 12 13 14 14 15 16 17 18 20 21 22 24 25 27 28 29 31 32 32 33 33 33 33 33 33 34 34 34 35 35 35 35 35 35 35 34 33 32 32 31 30 30 29 28 27 27 27 28 28 29 29 28 28 29 29 29 28 29 30 30 29 28 28
10 10 10 11 11 12 12 13 14 15 16 17 18 19 21 22 23 25 26 28 29 31 32 32 33 33 33 33 33 33 33 34 34 35 35 35 35 35 35 35 35 34 33 32 32 31 30 29 28 27 27 27 27 27 28 28 28 28 28 28 28 28 29 29 29 29 28 28 28
10 10 10 11 11 12 12 13 14 15 16 18 19 20 22 23 24 26 27 29 30 32 32 33 33 33 33 33 33 33 33 34 34 35 35 35 34 34 35 35 34 34 33 32 32 31 29 28 27 26 26 26 27 27 27 27 27 27 28 28 28 29 29 29 29 28 28 28 30
10 10 10 11 11 12 13 14 15 16 17 18 20 21 22 24 25 27 28 30 31 32 32 33 33 33 33 33 33 33 34 34 34 34 34 34 34 33 34 34 34 33 33 32 32 30 28 27 26 25 25 25 26 26 26 26 27 27 28 29 29 29 29 29 28 28 29 30 32
10 10 10 11 11 12 13 14 15 17 18 19 21 22 23 25 26 28 29 30 31 32 32 32 32 32 32 33 33 34 34 34 34 34 34 33 33 32 32 33 33 33 32 32 31 29 27 26 25 24 24 24 24 25 26 26 27 28 28 29 29 29 28 28 28 29 31 33 33
10 10 10 11 12 13 14 15 16 17 19 20 21 23 24 26 27 29 30 31 31 31 32 32 32 32 32 33 33 34 34 35 34 34 33 32 32 31 31 32 32 32 31 31 30 28 27 25 24 23 23 23 23 24 25 26 27 28 28 28 28 29 29 28 29 31 34 35 33
9 10 10 11 12 13 14 16 17 18 19 21 22 24 25 27 28 30 30 31 31 31 31 32 32 32 32 33 33 34 34 35 34 33 32 32 31 30 30 31 31 31 30 29 28 27 25 24 23 22 22 22 22 24 25 26 27 28 29 29 29 29 29 30 32 34 35 35 32
Wind_Direction
81 68 54 42 34 27 22 20 17 15 12 10 8 6 3 2 0 360 359 358 356 353 350 347 344 341 338 335 332 330 329 328 327 327 327 328 327 327 327 327 327 327 327 327 327 327 327 328 328 328 329 330 331 332 333 333 333 332 329 327 325 323 322 321 321 322 323 323 322
86 68 49 35 26 21 18 16 15 14 12 9 7 4 2 360 358 357 356 355 353 350 347 344 341 338 335 332 329 328 327 327 326 326 326 326 326 326 326 326 326 326 326 326 327 327 327 328 329 329 330 330 331 332 333 333 333 331 328 326 324 323 322 322 323 323 324 323 322
88 61 36 21 14 11 10 9 10 10 10 7 4 1 359 357 355 354 352 351 350 348 344 341 338 335 332 330 328 327 326 326 326 326 325 325 325 325 325 325 325 325 325 326 326 327 328 329 329 330 331 331 332 333 333 333 332 330 327 325 324 324 323 323 324 325 324 323 322
89 45 17 5 2 2 3 4 6 7 6 3 0 357 355 353 351 350 349 348 347 344 341 337 334 332 330 328 327 326 326 326 325 325 325 324 324 324 324 324 324 324 325 326 327 328 328 329 330 331 331 332 333 333 333 333 331 329 326 325 325 324 324 325 325 325 324 322 321
74 19 4 359 359 360 2 4 4 4 1 359 357 354 351 349 348 346 345 344 342 339 337 334 332 329 328 327 326 326 326 325 325 325 324 324 323 323 323 323 324 324 325 326 327 328 329 329 330 331 332 332 333 333 333 332 330 328 326 326 325 326 326 326 325 325 323 322 321
21 4 360 359 360 360 1 1 1 359 356 355 353 351 349 346 344 342 339 337 336 335 334 331 328 326 325 325 325 326 326 326 325 324 324 323 323 323 323 323 324 325 326 327 328 329 329 330 330 331 332 332 332 332 332 331 330 328 327 327 327 327 327 326 325 324 323 322 321
333 350 355 355 355 356 356 355 355 354 352 351 351 348 345 342 338 335 333 332 332 330 329 326 325 324 324 324 325 326 326 326 325 325 324 323 323 323 323 324 325 326 327 328 329 329 330 330 331 331 332 332 332 332 332 331 330 329 328 327 327 327 326 326 325 324 323 321 320
303 328 340 342 345 347 348 348 348 348 348 347 346 343 340 337 333 330 329 328 326 325 324 323 322 322 323 324 325 326 326 326 325 325 324 324 324 324 324 325 326 327 328 329 329 330 330 330 331 332 332 333 332 332 332 331 330 328 327 326 327 326 326 325 325 324 322 320 319
286 311 327 333 337 341 342 342 342 343 343 342 340 339 336 333 330 327 325 323 322 321 321 320 321 322 323 324 326 326 327 326 326 325 325 324 325 325 325 326 327 328 329 329 330 330 330 330 331 332 332 332 332 332 331 331 330 328 326 326 326 326 326 325 324 323 321 319 317
276 300 320 329 332 336 337 338 338 338 339 338 336 335 334 332 329 326 323 321 320 320 319 320 321 322 323 325 326 327 327 326 326 326 325 325 326 326 327 328 328 329 329 329 330 330 330 331 331 332 332 332 332 331 331 330 329 327 326 325 325 325 324 324 324 322 320 318 315
272 291 309 320 326 330 333 335 335 336 336 335 333 333 332 331 329 326 323 322 320 319 319 319 321 322 323 325 326 327 327 327 327 326 326 326 327 327 327 328 328 329 329 329 329 330 331 331 332 332 333 332 332 331 330 329 327 326 325 324 324 324 323 323 323 321 319 316 313
267 287 303 314 323 328 332 334 334 334 335 334 332 331 331 330 328 326 323 321 318 318 318 320 321 322 324 325 326 327 327 327 327 327 327 326 327 327 328 328 328 328 329 329 330 331 331 332 333 332 332 332 331 330 329 327 326 324 324 323 323 323 322 321 321 320 317 315 312
265 284 300 312 321 328 332 333 333 334 335 334 332 330 330 329 328 325 322 319 318 318 319 320 322 324 325 327 327 328 328 328 327 327 327 326 327 327 327 328 328 328 329 329 330 331 332 333 333 332 331 331 330 329 327 326 324 323 322 322 322 322 321 321 320 319 317 314 311
267 283 297 310 320 327 330 331 332 333 334 335 333 330 328 326 325 323 320 318 318 318 320 321 323 325 326 327 328 328 328 327 327 326 326 326 326 327 327 328 328 329 329 330 331 332 333 333 333 332 331 330 328 327 326 324 322 321 321 321 321 321 320 320 319 318 316 313 311
272 285 299 312 321 326 329 330 331 331 332 333 331 328 325 323 321 320 319 318 319 320 321 323 325 326 328 328 328 328 327 327 326 326 326 326 327 327 328 328 329 329 330 331 332 332 333 333 333 332 330 328 327 325 323 322 321 321 321 321 321 320 320 319 318 316 314 312 310
279 291 303 314 321 325 328 329 329 330 330 329 327 324 321 319 318 318 318 319 320 321 323 324 326 327 328 328 328 327 327 327 327 327 327 327 327 327 328 329 329 330 331 332 333 333 333 333 332 331 329 327 325 323 321 321 321 321 321 321 321 320 320 318 317 315 313 311 309
285 296 307 316 322 326 328 328 327 327 326 325 322 320 317 316 316 317 318 319 321 322 324 326 327 328 328 328 328 327 327 327 327 327 327 328 328 328 329 329 330 331 332 333 333 333 333 333 331 330 328 325 323 321 320 320 321 321 321 321 321 320 319 317 316 314 312 310 308
292 303 312 319 323 326 327 326 325 324 323 320 317 316 315 315 315 317 318 320 322 324 325 327 328 329 328 328 328 328 328 328 328 328 328 328 328 329 329 330 331 332 333 333 334 333 333 332 330 329 326 324 322 320 320 321 321 321 321 321 320 319 318 316 315 313 311 310 309
299 307 314 320 324 325 325 324 323 321 319 316 314 313 314 315 316 318 320 322 324 325 326 328 328 329 329 329 328 328 328 328 328 328 328 328 328 329 330 331 332 333 333 334 333 333 332 331 329 327 325 323 322 321 321 321 321 321 320 320 319 317 316 315 314 312 311 310 310
302 310 315 320 323 324 323 322 321 318 315 313 313 313 314 316 319 320 322 323 325 327 328 329 329 329 329 329 329 328 328 328 327 327 328 328 329 330 331 332 333 333 333 333 333 332 331 330 328 327 325 323 322 321 321 320 320 319 319 318 316 315 315 314 313 313 312 312 311
304 311 316 320 321 321 321 320 318 315 313 313 313 315 317 319 320 322 323 325 326 328 329 329 330 330 329 329 329 328 327 327 327 328 328 329 330 331 332 333 333 333 333 333 332 331 330 329 328 326 324 323 321 320 319 319 318 317 316 315 314 314 314 314 314 314 313 314 313
305 311 316 318 319 319 319 317 316 314 313 313 315 317 319 320 322 323 325 326 328 329 330 330 330 330 329 329 328 327 327 327 327 328 329 330 331 332 333 333 333 333 332 332 331 331 330 329 327 325 324 322 320 318 317 316 315 314 313 313 313 313 314 314 314 315 315 315 315
305 310 313 315 317 317 317 316 315 314 314 315 317 319 320 321 323 325 326 328 329 330 331 330 330 329 329 328 328 327 327 327 328 329 330 331 332 333 333 333 333 332 331 331 331 330 329 328 326 324 322 319 317 315 314 313 312 312 312 312 312 313 314 315 316 316 316 316 316
305 309 311 314 316 317 317 317 317 316 316 317 318 320 321 323 325 326 328 329 330 331 330 330 329 329 328 327 327 327 328 328 329 330 331 332 332 333 333 333 332 331 330 330 330 329 328 326 324 322 319 317 314 312 311 310 310 310 310 311 312 314 315 316 316 317 317 317 316
305 309 312 315 317 319 319 320 319 318 318 318 319 321 322 325 327 328 330 330 331 330 330 329 328 328 327 327 327 328 328 329 330 331 332 333 333 333 333 332 331 330 330 329 329 328 327 325 322 319 316 314 312 310 309 309 309 309 310 311 312 314 315 317 317 318 317 316 316
308 312 314 316 319 320 321 320 319 318 318 319 321 323 325 327 329 330 331 331 331 330 329 328 328 327 327 327 328 328 329 330 331 332 333 333 333 333 333 332 330 329 329 328 328 327 326 324 321 318 315 312 311 310 309 308 308 309 310 311 313 314 316 317 318 318 317 316 315
310 313 316 318 321 321 320 319 318 319 320 322 324 326 328 330 331 331 331 331 330 329 328 327 327 327 327 328 328 329 330 331 332 333 334 334 333 332 331 330 329 328 328 328 327 326 325 323 321 318 315 312 310 309 309 308 308 309 310 312 314 315 316 317 317 317 316 315 314
311 314 317 319 320 320 319 318 319 321 323 325 327 329 331 332 332 332 331 330 329 328 327 327 327 327 328 328 329 330 331 332 334 334 334 334 333 331 330 329 329 328 328 328 327 326 325 323 321 318 315 313 311 309 308 308 308 310 311 313 314 316 317 316 316 315 315 314 313
310 314 316 318 318 318 318 319 321 323 326 328 330 332 333 333 332 331 330 329 328 327 327 327 327 328 328 329 330 331 332 334 334 335 334 333 332 331 330 329 329 328 328 328 327 326 325 323 320 317 315 313 311 310 308 308 309 310 311 313 314 316 316 316 315 314 314 313 313
309 312 314 316 317 318 319 321 323 326 329 332 333 334 333 333 331 330 329 328 327 327 327 327 328 328 329 330 331 332 333 334 335 335 334 332 331 330 330 330 329 329 329 328 327 326 324 322 319 316 314 313 312 310 309 308 309 310 311 313 314 315 315 315 314 313 313 313 314
307 311 314 316 317 319 321 323 327 330 333 335 335 334 333 332 330 329 328 327 327 327 327 328 328 329 330 331 332 333 334 335 335 335 334 332 331 330 330 330 330 329 329 328 327 326 323 320 317 315 314 313 312 311 309 308 309 310 311 312 313 313 313 313 313 313 313 314 314
307 312 315 318 319 321 324 328 332 335 336 336 335 333 331 330 329 328 327 327 327 327 328 329 330 331 332 332 334 334 335 335 335 335 334 333 331 331 330 330 330 330 329 328 327 325 322 319 316 314 314 313 313 311 309 309 309 310 311 311 312 312 312 312 312 313 313 314 314
312 316 318 319 322 325 329 333 336 338 337 335 333 331 329 328 327 327 327 327 328 328 329 330 331 332 333 334 335 335 335 335 335 335 334 333 332 331 330 330 330 330 329 328 326 324 321 318 316 315 314 314 313 311 310 309 310 310 311 311 311 311 311 312 312 313 313 314 315
317 319 320 323 326 331 335 338 339 338 335 333 331 329 328 327 327 327 328 328 329 329 330 331 332 333 334 335 336 335 335 335 335 335 334 334 333 331 330 330 330 330 329 328 326 323 320 318 316 316 315 314 312 311 310 311 311 311 311 311 311 311 312 312 313 314 315 316 316
319 322 324 329 333 337 339 339 338 335 333 330 328 328 327 327 328 328 329 329 330 330 331 332 334 335 336 337 337 336 335 335 334 334 334 334 332 331 330 330 330 330 329 327 325 323 320 318 317 316 315 314 313 312 311 311 311 311 311 311 312 312 313 313 314 315 316 317 317
322 326 331 335 339 340 339 337 334 332 329 328 327 327 327 328 329 329 330 331 331 332 333 334 335 336 337 337 337 336 335 335 334 334 334 333 332 331 330 329 329 330 329 327 325 322 320 318 317 316 315 314 313 312 312 312 312 312 312 312 313 313 314 314 315 315 316 316 316
328 333 337 339 340 338 335 333 331 329 327 327 327 327 328 329 330 331 332 332 333 334 335 336 337 337 337 337 336 335 335 335 334 334 333 333 333 331 330 329 329 328 328 326 324 321 319 318 316 316 315 314 313 313 312 312 312 312 312 313 313 314 315 315 315 315 315 316 315
334 338 340 339 337 334 332 330 328 327 326 327 327 328 329 330 332 333 333 334 335 336 336 337 338 338 337 336 335 335 335 335 335 334 334 333 333 331 329 328 327 326 325 324 322 320 318 317 316 316 315 314 314 313 313 312 312 312 313 313 314 315 315 316 316 315 315 316 316
338 339 338 336 333 331 329 328 326 326 327 328 329 330 331 332 333 334 335 336 337 337 338 338 338 337 337 336 335 334 334 335 335 335 335 334 333 331 329 326 324 323 323 322 320 319 318 317 316 316 316 315 314 313 313 313 313 313 314 315 315 316 316 316 316 316 316 316 317
337 337 335 332 330 328 327 326 326 326 328 329 330 332 333 334 335 336 337 338 338 338 338 338 337 337 336 336 335 334 334 335 336 337 336 334 332 330 327 324 322 321 321 321 320 319 318 317 317 316 316 316 315 314 314 314 314 314 315 316 316 316 316 316 316 317 317 317 317
335 334 332 329 327 326 326 325 326 327 329 331 332 334 335 335 337 338 338 339 339 339 338 337 337 336 336 336 335 335 335 335 336 337 336 334 332 329 326 323 322 321 320 321 321 320 319 318 317 317 317 317 316 315 315 315 316 316 316 316 317 316 316 317 317 318 318 317 317